Volver al catálogo

STARLINK-2478

ActivoComunicacionesVLEO
NORAD 48135·PAYLOAD·🇺🇸 United States

Lanzado Apr 7, 2021 desde Cape Canaveral Space Force Station

Loading…

Próximos Pases (próximas 24 horas)

TLE

ActualizadoSource: CelesTrak SupGP

Época: Sep 14, 2026, 21:56 UTC

1 48135C 21027AV  26257.91437500 -.00025522  00000+0 -82021-3 0  2574
2 48135  53.1596   7.3543 0000916  89.4364 192.5575 15.31734356    17

Sigue STARLINK-2478 en tiempo real con AllMySat

Download on the App Store